Regional Weather Roundup
Issued by NWS

Home | Current Version | Previous Version | Graphics & Text | Print | Product List | Glossary On
Versions: 1 2 3 4 5 6 7 8 9 10 11 12 13 14 15 16 17 18 19 20 21 22 23 24 25 26 27 28 29 30 31 32 33 34 35 36 37 38 39 40 41 42 43 44 45 46 47 48 49 50
000
ASUS43 KLOT 251803
RWRIL

ILLINOIS REGIONAL WEATHER ROUNDUP
NATIONAL WEATHER SERVICE CHICAGO/ROMEOVILLE IL
100 PM CDT SAT MAR 25 2017

NOTE: "FAIR" INDICATES FEW OR NO CLOUDS BELOW 12,000 FEET WITH NO
SIGNIFICANT WEATHER AND/OR OBSTRUCTIONS TO VISIBILITY.

* THESE STATIONS ARE NOT UNDER NWS QUALITY CONTROL. THEY ALSO MAY NOT
  REPORT WEATHER SUCH AS PRECIPITATION OR FOG.

ILZ001-002-007-009-015-016-024-251900-
NORTHWEST ILLINOIS

CITY           SKY/WX    TMP DP  RH WIND       PRES   REMARKS
MOLINE         CLOUDY    45  43  93 E13       29.92S
6HR MIN TEMP:  42; 6HR MAX TEMP:  45; 6HR PCP:  0.47;

STERLING*      CLOUDY    46  44  93 E22       29.95F
SAVANNA*       CLOUDY    43  41  93 NE21G29   29.96F
$$

ILZ003-004-008-010-011-017-018-251900-
NORTH CENTRAL ILLINOIS

CITY           SKY/WX    TMP DP  RH WIND       PRES   REMARKS
ROCKFORD       CLOUDY    43  40  89 E12       30.04R
6HR MIN TEMP:  40; 6HR MAX TEMP:  43; 6HR PCP:  0.23;

FREEPORT*      CLOUDY    40  39  97 E18       30.03F
ROCHELLE*      CLOUDY    45  43  95 NE18G24   29.99F
DE KALB*       CLOUDY    45  44  96 E18       30.01F
PERU*          CLOUDY    51  49  91 E17       29.95F FOG
$$

ILZ005-006-012>014-019>023-251900-
NORTHEAST ILLINOIS

CITY           SKY/WX    TMP DP  RH WIND       PRES   REMARKS
CHICAGO-OHARE  CLOUDY    43  40  89 NE14      30.03F
6HR MIN TEMP:  41; 6HR MAX TEMP:  43; 6HR PCP:  0.34;

CHICAGO-MIDWAY CLOUDY    46  45  96 N9        30.02F FOG
6HR MIN TEMP:  42; 6HR MAX TEMP:  46; 6HR PCP:  0.25;

AURORA         CLOUDY    47  43  86 NE21      30.00F
6HR MIN TEMP:  42; 6HR MAX TEMP:  47; 6HR PCP:  0.31;

LANSING*       CLOUDY    46  46 100 CALM      30.01F FOG
JOLIET*        CLOUDY    51  49  93 NE8       29.99F
WAUKEGAN       LGT RAIN  38  38 100 NE13G22   30.07F FOG     WCI  30
6HR MIN TEMP:  38; 6HR MAX TEMP:  39; 6HR PCP:  0.30;

DUPAGE AIRPORT CLOUDY    43  43 100 NE12      30.02S
6HR MIN TEMP:  41; 6HR MAX TEMP:  43; 6HR PCP:  0.19;

WHEELING       CLOUDY    40  40 100 NE13      30.06F
6HR MIN TEMP:  39; 6HR MAX TEMP:  40; 6HR PCP:  0.29;

MORRIS*        CLOUDY    50  48  92 NE8       29.97F FOG
NORTHERLY ISL    N/A     42  40  92 MISG        N/A
$$

LMZ740>746-251900-
SOUTHERN LAKE MICHIGAN

STATION/POSITION SKY/WX   TEMP    WIND        PRES    VSBY  WAVE
                          AIR SEA DIR/SP/G                  HT/PER
                          (F)     (DEG/KT/KT) (MB)    (MI)  (FT/S)
HARRISON CRIB                     360/ 10/ 10   N/A
BURNHAM HARBOR                    350/ 11/ 13   N/A
CALUMET HARBOR                    340/ 12/ 13 1016.1F
BURNS HARBOR               41     260/  4/  4 1016.9S
MICHIGAN CITY              57      90/  9/ 11   N/A
$$

ILZ025>027-034>036-040-047-049-050-058-095>099-251900-
WEST-CENTRAL ILLINOIS

CITY           SKY/WX    TMP DP  RH WIND       PRES   REMARKS
QUINCY         PTSUNNY   65  54  67 S9        29.84F
GALESBURG*     PTSUNNY   59  56  90 E6        29.88F
MACOMB*        FAIR      64  57  77 S9        29.89S
JACKSONVILLE*  CLOUDY    60  54  80 S14       29.89S
PITTSFIELD*    CLOUDY    61  56  83 S15       29.88S
$$

ILZ028>032-037-038-041>044-048-051>054-059>061-251900-
CENTRAL ILLINOIS

CITY           SKY/WX    TMP DP  RH WIND       PRES   REMARKS
PONTIAC        CLOUDY    62  60  93 SE9       29.95S
BLOOMINGTON    CLOUDY    61  55  81 S6        29.95R
DECATUR        CLOUDY    65  51  60 S14       29.92S
PEORIA         CLOUDY    64  55  72 S15       29.90S
6HR MIN TEMP:  47; 6HR MAX TEMP:  64; 6HR PCP:  0.04;

SPRINGFIELD    LGT RAIN  61  56  83 S12       29.91S
6HR MIN TEMP:  59; 6HR MAX TEMP:  65; 6HR PCP:  0.01;

TAYLORVILLE    NOT AVBL
$$

ILZ033-039-045-046-055>057-062-063-251900-
EAST-CENTRAL ILLINOIS

CITY           SKY/WX    TMP DP  RH WIND       PRES   REMARKS
CHAMPAIGN      CLOUDY    69  51  52 S15G23    29.94S
RANTOUL*       CLOUDY    67  53  61 S10       29.95S
MATTOON        CLOUDY    66  53  63 S17G23    29.93F
PARIS*         CLOUDY    69  55  61 S22G30    29.97S
$$

ILZ079-100>102-251900-
SOUTHWEST ILLINOIS

CITY           SKY/WX    TMP DP  RH WIND       PRES   REMARKS
ALTON          CLOUDY    63  55  77 S12       29.89F
BELLEVILLE     LGT RAIN  62  60  93 S17G24    29.88S
CAHOKIA*       LGT RAIN  62  56  80 S7        29.88S
SPARTA*        CLOUDY    62  55  79 S13G21    29.91R
$$

ILZ064>066-069>071-074>076-080>082-084>086-088>090-092>094-251900-
SOUTH-CENTRAL ILLINOIS

CITY           SKY/WX    TMP DP  RH WIND       PRES   REMARKS
CARBONDALE     LGT RAIN  63  57  81 S16       29.91F
6HR MIN TEMP:  55; 6HR MAX TEMP:  65; 6HR PCP: TRACE;

CAIRO*         RAIN      61  58  90 SE14G20   29.93S
EFFINGHAM*     CLOUDY    67  55  65 SE20      29.95S
MARION         CLOUDY    66  59  77 S15G25    29.91F
MT. VERNON     CLOUDY    66  55  67 S21G28    29.92F
CENTRALIA*     CLOUDY    66  56  71 S22G29    29.90S
SALEM*         CLOUDY    68  55  62 S14G21    29.91F
$$

ILZ067-068-072-073-078-083-087-091-251900-
SOUTHEAST ILLINOIS

CITY           SKY/WX    TMP DP  RH WIND       PRES   REMARKS
LAWRENCEVILLE  PTSUNNY   72  53  51 S24G33    29.96F
FLORA*         PTSUNNY   70  56  61 S22G28    29.93F
FAIRFIELD*     PTSUNNY   69  56  64 S15       29.94S
HARRISBURG*    CLOUDY    68  57  67 S16G22    29.95S
ROBINSON*      PTSUNNY   70  53  55 S17       29.96F
CARMI*         PTSUNNY   69  55  60 S21G29    29.95S
$$

ABBREVIATIONS USED IN REMARKS
   TC - TEMPERATURE IN CELSIUS
  WCI - WIND CHILL INDEX
   HX - HEAT INDEX
  VSB - VISIBILITY
$$




USA.gov is the U.S. government's official web portal to all federal, state and local government web resources and services.